Joplin, MO

5:13 AM CDT on August 23, 2019 (GMT -0500)
Joplin Regional

Weather History for KJLN - June, 2019

Change the Weather History Date:

Saturday, June 1, 2019

  Actual Average Record
Temperature  
Mean Temperature 74 °F 71 °F  
Max Temperature 86 °F 82 °F 94 °F (2018)
Min Temperature 61 °F 61 °F 45 °F (1964)
Degree Days  
Heating Degree Days 0 1  
Month to date heating degree days 0 1  
Since 1 June heating degree days 0 1  
Since 1 July heating degree days 4415 4070  
Cooling Degree Days 8 7  
Month to date cooling degree days 9 7  
Year to date cooling degree days 162 187  
Since 1 June cooling degree days 9 7  
Growing Degree Days 24 (Base 50)    
Moisture  
Dew Point 63 °F    
Average Humidity 72    
Maximum Humidity 90    
Minimum Humidity 55    
Precipitation  
Precipitation 0.02 in 0.20 in 1.92 in (2007)
Month to date precipitation 0.02 0.20  
Year to date precipitation 28.17 18.15  
Sea Level Pressure  
Sea Level Pressure 29.91 in    
Wind  
Wind Speed 8 mph ()    
Max Wind Speed 28 mph    
Max Gust Speed 46 mph    
Visibility 10.0 miles    
Events Rain , Thunderstorm    
T = Trace of Precipitation, MM = Missing Value Source: Averaged Metar Reports

Daily Weather History Graph

Daily Weather History Graph

Search for Another Location

Airport or City:

Astronomy

Jun. 01, 2019 Rise Set
Actual Time 5:59 AM CDT 8:32 PM CDT
Civil Twilight 5:29 AM CDT 9:02 PM CDT
Nautical Twilight 4:51 AM CDT 9:40 PM CDT
Astronomical Twilight 4:09 AM CDT 10:22 PM CDT
Moon 5:00 AM CDT (6/1) 6:49 PM CDT (6/1)
Length of Visible Light 15h 33m
Length of Day
14h 32m
Waning Crescent, 4% of the Moon is Illuminated
Jun 1
Waning Crescent
Jun 3
New
Jun 10
First Quarter
Jun 17
Full
Jun 25
Last Quarter

Hourly Weather History & Observations

Time (CDT) Temp. Heat Index Dew Point Humidity Pressure Visibility Wind Dir Wind Speed Gust Speed Precip Events Conditions
12:53 AM 66.0 °F - 59.0 °F 78% 29.94 in 10.0 mi SSE 3.5 mph - N/A   Clear
1:53 AM 64.9 °F - 57.9 °F 78% 29.92 in 10.0 mi SSE 5.8 mph - N/A   Clear
2:53 AM 64.0 °F - 57.9 °F 80% 29.92 in 10.0 mi South 5.8 mph - N/A   Clear
3:53 AM 63.0 °F - 57.9 °F 84% 29.92 in 10.0 mi South 5.8 mph - N/A   Clear
4:53 AM 62.1 °F - 59.0 °F 90% 29.92 in 10.0 mi SSW 5.8 mph - N/A   Clear
5:53 AM 62.1 °F - 59.0 °F 90% 29.92 in 10.0 mi SSW 5.8 mph - N/A   Clear
6:53 AM 64.9 °F - 61.0 °F 87% 29.93 in 10.0 mi SSW 6.9 mph - N/A   Clear
7:53 AM 71.1 °F - 63.0 °F 75% 29.93 in 10.0 mi SSW 8.1 mph - N/A   Clear
8:53 AM 75.0 °F - 64.0 °F 69% 29.94 in 10.0 mi SSW 9.2 mph - N/A   Clear
9:53 AM 78.1 °F - 66.9 °F 68% 29.94 in 10.0 mi WSW 11.5 mph - N/A   Partly Cloudy
10:53 AM 80.1 °F 82.1 °F 66.0 °F 62% 29.94 in 10.0 mi WSW 11.5 mph - N/A   Clear
11:53 AM 82.0 °F 84.5 °F 66.9 °F 60% 29.93 in 10.0 mi SW 10.4 mph - N/A   Clear
12:53 PM 84.0 °F 87.0 °F 68.0 °F 58% 29.92 in 10.0 mi WSW 8.1 mph 20.7 mph N/A   Clear
1:53 PM 84.9 °F 87.6 °F 66.9 °F 55% 29.90 in 10.0 mi WSW 13.8 mph - N/A   Partly Cloudy
2:53 PM 84.9 °F 88.8 °F 69.1 °F 59% 29.88 in 10.0 mi WSW 11.5 mph 24.2 mph N/A   Clear
3:53 PM 84.9 °F 88.8 °F 69.1 °F 59% 29.88 in 10.0 mi SW 15.0 mph 21.9 mph N/A   Scattered Clouds
4:53 PM 84.0 °F 87.8 °F 69.1 °F 61% 29.86 in 10.0 mi SW 13.8 mph 23.0 mph N/A   Clear
5:53 PM 82.9 °F 85.8 °F 68.0 °F 60% 29.83 in 10.0 mi SSW 15.0 mph - N/A   Partly Cloudy
6:53 PM 81.0 °F 82.7 °F 64.9 °F 58% 29.83 in 10.0 mi SW 10.4 mph - N/A   Clear
7:33 PM 71.1 °F - 60.1 °F 68% 29.94 in 10.0 mi NNE 27.6 mph 46.0 mph N/A Thunderstorm Scattered Clouds
7:53 PM 66.9 °F - 60.1 °F 79% 29.94 in 10.0 mi NNE 15.0 mph 28.8 mph N/A Thunderstorm Overcast
8:43 PM 66.9 °F - 60.1 °F 79% 29.91 in 10.0 mi ESE 6.9 mph - N/A Thunderstorm Thunderstorm
8:53 PM 66.9 °F - 61.0 °F 81% 29.89 in 10.0 mi SE 5.8 mph - 0.00 in Rain , Thunderstorm Light Thunderstorms and Rain
9:01 PM 66.0 °F - 62.1 °F 87% 29.92 in 10.0 mi SSW 6.9 mph - 0.00 in Rain , Thunderstorm Light Rain
9:53 PM 66.0 °F - 61.0 °F 84% 29.89 in 10.0 mi WSW 11.5 mph - 0.02 in   Mostly Cloudy
10:53 PM 66.9 °F - 60.1 °F 79% 29.87 in 10.0 mi SW 8.1 mph - 0.00 in   Clear
11:53 PM 69.1 °F - 57.9 °F 68% 29.87 in 10.0 mi SW 10.4 mph - N/A   Clear